Погода в Сарышагане

Хотите узнать прогноз погоды в Сарышагане? Тогда Вам сюда: Погода в Сарышагане

Поиск расширенной информации на нашем сайте:

Полезная информация:

Новости сайта



02.01.2020
Опубликован Долгосрочный прогноз погоды по городам России и ближнего зарубежья на январь 2020 года.
Карты: Прогноз на январь и февраль 2020 года, Сравнение прогнозируемой аномалии приземной температуры воздуха на январь 2020 года по разным моделям.




Погода в Сарышагане - сегодня

Время (UTC), дата Ветер
(°,м/с) 
Видим.   Явления Облачность Т
(°С)
Тd
(°С)
f(%) Тe
(°С)
Pmin
(гПа)
dP
(гПа)
Po
(мм)
O2
(г/м3)
Тmin Tmax R s Состояние
почвы
12 22.10.21 230 (ЮЗ) 20000 м    9/9 600 м кучево-дожд. 
[Cb calv]
+6.5 -7 37 +5  1033.6  1.5  742  293           
15 22.10.21 210 (ЮЗ) 10 км    3/3 600 м кучево-дожд. 
[Cb calv]
+3.4 -6 50 +3  1036.1  1.9  744  297    +8.3       
18 22.10.21 180 (Ю) 10 км    4/0 верхняя 
[Ci sp]
+0.5 -7.3 56 1036.9  0.3  744  300    +8.3       
21 22.10.21 190 (Ю) 10 км    10/0 средняя 
[Ac As]
+1.5 -4 67 +2  1037.1  0.4  744  299           
00 23.10.21 230 (ЮЗ) 10 км    10/0 средняя 
[Ac As]
+2.4 -1.9 73 +2  1037  744  297           
03 23.10.21 240 (ЮЗ) 20000 м    9/0 средняя 
[Ac trans]
+2.5 -3.8 63 +2  1037.9  0.9  745  298           
06 23.10.21 230 (ЮЗ) 20000 м    8/0 средняя 
[Ac trans]
+8.3 -6.9 33 +8  1036.2  -0.8  744  292  +0.3         
09 23.10.21 260 (З) 20000 м    9/0 средняя, верхняя 
[Ac trans|Ci sp]
+9.5 -7.9 28 +9  1034.8  -1.1  743  290           
12 23.10.21 150 (ЮВ) 20000 м    8/0 средняя, верхняя 
[Ac und|Ci sp]
+8.2 -1.5 50 +8  1034.8  -0.2  743  291           
15 23.10.21 270 (З) 10 км    4/0 средняя 
[Ac trans]
+4.7 -1 66 +6  1036.3  744  295    +10.5       
18 23.10.21 350 (С) 10 км    ясно 
+2.8 -3.7 62 +2  1035.8  -0.8  743  297    +10.5       
21 23.10.21 020 (С) 10 км    ясно 
+1.7 -4.4 64 +1  1035.2  -0.8  743  298           
00 24.10.21 020 (С) 10 км    ясно 
+0.3 -3 78 1034.9  -0.4  743  299           
03 24.10.21 010 (С) 20000 м    ясно 
+0.5 -1.2 88 1034.8  -0.1  743  299           
06 24.10.21 060 (СВ) 20000 м    ясно 
+7.3 +1.7 68 +7  1032.6  -1  742  291  -0.4         
09 24.10.21 080 (В) 20000 м    ясно 
+9 +1.3 58 +8  1029.5  -2.7  740  288           
12 24.10.21 050 (СВ) 20000 м    ясно 
+8.8 +1.9 62 +8  1028.3  -1.2  739  288           
15 24.10.21 040 (СВ) 10 км    ясно 
+6.7 +2.1 72 +6  1027.7  -1  738  290    +10.8       
18 24.10.21 030 (СВ) 10 км    ясно 
+3.8 +1.3 84 +3  1026.4  -1.7  737  293    +10.8       
21 24.10.21 020 (С) 10 км    ясно 
+1.6 -0.3 87 +1  1024.9  -1.8  735  295           
00 25.10.21 020 (С) 10 км    ясно 
+0.6 -1.7 85 -1  1023.9  -1.1  735  296           
03 25.10.21 030 (СВ) 20000 м    ясно 
+0.8 -2.4 79 -2  1023.9  735  295           
06 25.10.21 070 (В) 20000 м    ясно 
+8 +1.2 62 +7  1021.8  -0.9  734  287  +0.4         
09 25.10.21 080 (В) 20000 м    ясно 
+11.5 -0.8 42 +11  1019.3  -1.8  733  283           
12 25.10.21 050 (СВ) 20000 м    ясно 
+10.5 +0 48 +10  1018.6  -0.8  732  284           
Время (UTC), дата Ветер
(°,м/с) 
Видим.   Явления Облачность Т
(°С)
Тd
(°С)
f(%) Тe
(°С)
Pmin
(гПа)
dP
(гПа)
Po
(мм)
O2
(г/м3)
Тmin Tmax R s Состояние
почвы

Для получения пояснительной информации подведите курсор к названию столбца.

ПОГОДА в Сарышагане - архив

Всё, что Вы хотите узнать о погоде в Сарышагане - удобно и подробно!

Выберите нужную дату (начиная с 1 января 2019* года) и нажмите кнопку "Найти".
Будут отображены архивные сводки погоды по пункту Сарышаган, начиная с указанной даты.


Отображать данные в формате CSV (для использования в таблицах Excel)


Внимание! Наш архив погоды предназначен исключительно для личного некоммерческого использования в познавательных целях. Если Вам необходимы официальные справки о состоянии погоды (для производственных, юридических, коммерческих и т.п. целей), обращайтесь в органы Росгидромета.

*Примечание: данная дата относится к архиву по метеостанциям СССР (Россия, СНГ, Балтия).
Архив по метеостанциям Зарубежной Европы и Азии (кроме Китая) хранится 10 дней, по другим регионам земного шара (Китай, Африка, Америка, Австралия, Океания) - 1 день.

Сарышаган - район местоположения метеостанции


Название, широта, долгота, высота метеостанции:
Сарышаган 46.1°ш. 73.7°д. 355 м над ур. моря [Казахстан]

Дополнительная информация

В oтличие oт бoльшинства пoгoдных сайтoв мы публикуем пoдрoбную метеoинфoрмацию в детальнoм прoфессиoнальнoм фoрмате.

Характеристики температуры и влажнoсти вoздуха измеряются на высoте 2 м в тени вдали oт зданий и деревьев.
Скoрoсть ветра измеряется на высoте 10 м (на урoвне рoста челoвека скoрoсть ветра ниже в 1.5-2 раза). Если метеoстанция нахoдится в гoрoде или в лесу, тo скoрoсть ветра занижена на 2-4 м/с пo сравнению с oткрытым местoм. Скoрoсть ветра над акватoриями крупных рек и oзёр, а также на вершинах хoлмoв на 2-5 м/с выше, чем в oбычных услoвиях.
Атмoсфернoе давление в разных тoчках местнoсти мoжет значительнo oтличаться oт давления на метеoстанции, в зависимoсти oт услoвий рельефа (при пoдъёме на 10 м давление пoнижается примернo на 1 мм рт.ст.).